[[{"header":{"parameterUnit":"m.s-1","parameterCategory":1,"la1":30.2991,"la2":30.254,"lo1":-89.0895,"lo2":-89.0444,"dy":0.0017,"dx":0.0017,"nx":28,"ny":28,"refTime":"2023-03-21T21:00:00:Z","depth":0,"parameterNumber":2,"parameterNumberName":"U-component_of_WINDS"},"data":[0,0,0,0,0,0,0,0,0,0,0,0,0,0,0,0,0,0,0,0,0,0,0,0,0,0,0,0,0,0,0,0,0,0,0,0,0,0,0,0,0,0,0,0,0,0,0,0,0,0,0,0,0,0,0,0,0,0,-4.0206,-4.0207,0,-4.0272,-4.0272,-4.0273,-4.0274,-4.0274,-4.0273,-4.0272,-4.0337,-4.0339,-4.0342,0,0,0,0,0,0,0,0,0,0,0,0,0,-4.0083,-4.0085,-4.0206,-4.0207,-4.0208,-4.0272,-4.0272,-4.0273,-4.0275,-4.0274,-4.0273,-4.0272,-4.0336,-4.0339,-4.0342,0,0,0,0,0,0,0,0,0,0,0,0,0,-4.0141,-4.0086,-4.0206,-4.0216,-4.0218,-4.0271,-4.0272,-4.0274,-4.0275,-4.0274,-4.0272,-4.0271,-4.0335,-4.0339,-4.0343,-4.039,0,0,-4.0354,-4.0356,0,0,0,0,0,0,0,0,-4.0138,-4.0146,-4.0214,-4.0216,-4.0218,-4.0264,-4.0253,-4.0312,-4.0275,-4.0253,-4.0272,-4.0271,-4.0313,-4.0319,-4.0334,-4.0393,-4.0396,-4.0354,-4.0356,-4.0358,-4.0359,0,0,0,0,0,0,0,-4.0134,-4.0143,-4.0232,-4.0215,-4.0217,-4.0218,-4.0225,-4.0264,-4.0289,-4.0255,-4.0255,-4.0263,-4.0314,-4.033,-4.0335,-4.0396,-4.0354,-4.0357,-4.036,-4.0361,-4.0499,-4.05,0,0,0,0,0,0,-4.0128,-4.014,-4.023,-4.0234,-4.0174,-4.0221,-4.0229,-4.025,-4.0289,-4.0294,-4.0264,-4.0263,-4.0324,-4.0331,-4.0338,-4.0395,-4.0358,-4.0362,-4.0364,-4.0498,-4.0499,-4.0501,0,0,0,0,0,0,-4.0125,-4.0136,-4.0227,-4.0187,-4.0199,-4.0224,-4.0248,-4.0252,-4.0268,-4.0296,-4.03,-4.0276,-4.0324,-4.0332,-4.0377,-4.0398,-4.0363,-4.0367,-4.0496,-4.0498,-4.05,-4.0511,0,0,0,0,0,0,-4.0122,-4.0135,-4.0153,-4.0187,-4.0201,-4.0266,-4.025,-4.0254,-4.0275,-4.0274,-4.0308,-4.0312,-4.0323,-4.0372,-4.0381,-4.0402,-4.037,-4.0494,-4.0497,-4.0499,-4.0509,-4.0514,-4.0517,0,0,0,0,0,-4.0117,-4.0153,-4.0154,-4.0165,-4.0224,-4.0267,-4.0275,-4.0287,-4.0276,-4.0294,-4.0313,-4.0311,-4.0395,-4.0376,-4.0387,-4.0409,-4.0493,-4.0496,-4.0499,-4.0507,-4.0513,-4.0517,0,0,0,0,0,0,-4.0119,-4.0157,-4.0159,-4.0207,-4.0234,-4.0267,-4.029,-4.0292,-4.0322,-4.032,-4.0335,-4.0342,-4.0387,-4.0403,-4.0382,-4.0458,-4.0442,-4.0448,-4.0445,-4.045,-4.0454,-4.0448,-4.0373,0,0,0,0,0,-4.0125,-4.0157,-4.0189,-4.0228,-4.0242,-4.0264,-4.0283,-4.0291,-4.0319,-4.033,-4.0352,-4.0379,-4.0411,-4.0432,-4.0464,-4.0513,-4.052,-4.0534,-4.0538,-4.0541,-4.0545,-4.0573,-4.0579,-4.0511,-4.0511,-4.0511,0,0,-4.0137,-4.0162,-4.0181,-4.0229,-4.0251,-4.0284,-4.0273,-4.0308,-4.0332,-4.0335,-4.0379,-4.0396,-4.0428,-4.0475,-4.0497,-4.049,-4.0566,-4.0545,-4.0548,-4.055,-4.0576,-4.0583,-4.0588,-4.0514,-4.0513,-4.0513,0,0,-4.0176,-4.0198,-4.0233,-4.0256,-4.029,-4.0305,-4.0314,-4.0348,-4.036,-4.0404,-4.0407,-4.0437,-4.0493,-4.0515,-4.0534,-4.0585,-4.0584,-4.0595,-4.0615,-4.0642,-4.0647,-4.0652,-4.067,-4.0676,-4.0599,-4.0599,-4.0599,0,-4.0186,-4.0236,-4.0251,-4.0286,-4.0307,-4.0314,-4.035,-4.0371,-4.0413,-4.0428,-4.042,-4.0491,-4.0512,-4.0565,-4.0578,-4.0594,-4.0604,-4.0589,-4.0646,-4.065,-4.0655,-4.0672,-4.0678,-4.06,-4.06,-4.06,-4.06,0,-4.0247,-4.0282,-4.0306,-4.0348,-4.0372,-4.0407,-4.0428,-4.0451,-4.0458,-4.0474,-4.052,-4.0547,-4.0584,-4.0598,-4.0605,-4.0653,-4.0647,-4.0643,-4.0627,-4.0662,-4.0678,-4.0685,-4.0602,-4.0601,-4.0601,-4.0601,0,0,-4.0284,-4.0337,-4.0345,-4.0365,-4.0404,-4.0431,-4.0468,-4.0505,-4.0524,-4.0555,-4.0585,-4.0634,-4.063,-4.0652,-4.0661,-4.0685,-4.0724,-4.0678,-4.0679,-4.0684,-4.0778,-4.078,-4.0787,-4.0725,-4.0727,-4.0728,-4.0775,0,-4.0326,-4.0391,-4.0408,-4.0463,-4.0495,-4.0504,-4.0536,-4.0563,-4.058,-4.0611,-4.0629,-4.0663,-4.0657,-4.067,-4.0694,-4.0714,-4.0742,-4.0711,-4.0753,-4.0754,-4.0742,-4.0795,-4.0797,-4.084,-4.0781,-4.0783,-4.0783,0,-4.0383,-4.0415,-4.0474,-4.051,-4.0525,-4.0553,-4.059,-4.0619,-4.0651,-4.0662,-4.0688,-4.0696,-4.0734,-4.0719,-4.0773,-4.0751,-4.077,-4.0783,-4.0785,-4.0787,-4.0769,-4.0797,-4.0854,-4.086,-4.0793,-4.0793,-4.0792,0,-4.0403,-4.0461,-4.0504,-4.0521,-4.0565,-4.0585,-4.0604,-4.0636,-4.0658,-4.069,-4.0705,-4.0742,-4.0761,-4.0789,-4.0807,-4.0795,-4.086,-4.0846,-4.0869,-4.0868,-4.0879,-4.0878,-4.0938,-4.0895,-4.0895,-4.0895,-4.0895,0,-4.0446,-4.0482,-4.0514,-4.054,-4.058,-4.06,-4.0639,-4.0659,-4.0687,-4.0718,-4.0728,-4.0756,-4.0779,-4.0811,-4.0826,-4.0868,-4.0877,-4.0886,-4.0889,-4.0884,-4.0883,-4.0894,-4.0891,-4.0897,-4.0896,-4.0896,-4.0896,0,-4.0474,-4.0497,-4.0544,-4.0584,-4.0594,-4.0622,-4.0656,-4.0682,-4.0701,-4.0739,-4.0749,-4.0778,-4.0816,-4.0838,-4.0885,-4.0895,-4.0942,-4.0944,-4.0931,-4.0932,-4.0953,-4.095,-4.1021,-4.1031,-4.0983,-4.0984,-4.0984,0,-4.0499,-4.0527,-4.0569,-4.0591,-4.0611,-4.0645,-4.0668,-4.069,-4.0714,-4.0754,-4.0775,-4.0814,-4.0846,-4.0907,-4.0932,-4.0969,-4.0971,-4.0994,-4.0977,-4.0971,-4.097,-4.0967,-4.097,-4.0996,-4.0996,-4.0997,-4.0997,0,-4.0541,-4.0552,-4.0585,-4.0623,-4.0651,-4.0681,-4.0712,-4.0729,-4.0756,-4.0782,-4.0822,-4.0847,-4.0897,-4.0935,-4.0975,-4.0995,-4.1,-4.1003,-4.101,-4.1003,-4.0994,-4.0998,-4.0937,-4.1,-4.1,-4.1,-4.0999,-4.0999,-4.0567,-4.0592,-4.0627,-4.0664,-4.069,-4.0719,-4.0745,-4.0768,-4.0802,-4.0844,-4.0855,-4.0897,-4.0931,-4.0984,-4.1006,-4.1039,-4.1035,-4.1045,-4.1047,-4.1049,-4.1049,-4.0991,-4.1046,-4.1046,-4.1046,-4.1046,-4.1046,0,-4.0608,-4.0632,-4.0666,-4.0709,-4.0739,-4.0744,-4.0778,-4.0802,-4.0839,-4.087,-4.0902,-4.0948,-4.0987,-4.1016,-4.1055,-4.1076,-4.108,-4.1085,-4.1083,-4.1087,-4.1051,-4.104,-4.1082,-4.1082,-4.1082,-4.1082,-4.1082,-4.1082,-4.0633,-4.0676,-4.0691,-4.0748,-4.0771,-4.0812,-4.0831,-4.0858,-4.0884,-4.0935,-4.0967,-4.0987,-4.1018,-4.106,-4.1095,-4.1103,-4.1116,-4.1121,-4.1129,-4.1094,-4.109,-4.1086,-4.1076,-4.1124,-4.1124,-4.1163,-4.1163,-4.1163]},{"header":{"parameterUnit":"m.s-1","parameterCategory":1,"la1":30.2991,"la2":30.254,"lo1":-89.0895,"lo2":-89.0444,"dy":0.0017,"dx":0.0017,"nx":28,"ny":28,"refTime":"2023-03-21T21:00:00:Z","depth":0,"parameterNumber":3,"parameterNumberName":"V-component_of_WINDS"},"data":[0,0,0,0,0,0,0,0,0,0,0,0,0,0,0,0,0,0,0,0,0,0,0,0,0,0,0,0,0,0,0,0,0,0,0,0,0,0,0,0,0,0,0,0,0,0,0,0,0,0,0,0,0,0,0,0,0,0,4.4071,4.4071,0,4.4004,4.4003,4.4002,4.3968,4.3968,4.3968,4.3968,4.3893,4.3891,4.3889,0,0,0,0,0,0,0,0,0,0,0,0,0,4.4166,4.4164,4.4071,4.4071,4.407,4.4004,4.4003,4.4002,4.3968,4.3968,4.3968,4.3968,4.3894,4.3892,4.3889,0,0,0,0,0,0,0,0,0,0,0,0,0,4.4114,4.4164,4.4072,4.4045,4.4042,4.4004,4.4003,4.4002,4.3968,4.3968,4.3968,4.3968,4.3895,4.3892,4.3889,4.387,0,0,4.388,4.3878,0,0,0,0,0,0,0,0,4.4117,4.4111,4.405,4.4047,4.4043,4.3995,4.4009,4.3958,4.3968,4.3996,4.3968,4.3968,4.3927,4.3921,4.3908,4.3867,4.3864,4.3879,4.3878,4.3876,4.3876,0,0,0,0,0,0,0,4.4121,4.4113,4.4045,4.4049,4.4045,4.4035,4.4028,4.3999,4.3962,4.3994,4.3991,4.3984,4.3925,4.3911,4.3906,4.3863,4.388,4.3877,4.3875,4.3874,4.3803,4.3803,0,0,0,0,0,0,4.4129,4.4116,4.4047,4.4043,4.4081,4.4033,4.4025,4.401,4.3962,4.3955,4.3984,4.3983,4.3916,4.391,4.3903,4.3879,4.3876,4.3874,4.3872,4.3803,4.3803,4.3803,0,0,0,0,0,0,4.4131,4.4123,4.4049,4.4079,4.4069,4.4032,4.4015,4.4009,4.3995,4.3955,4.3948,4.3977,4.3916,4.3908,4.388,4.3876,4.3872,4.387,4.3804,4.3803,4.3803,4.3831,0,0,0,0,0,0,4.4134,4.4124,4.4118,4.4079,4.4067,4.4028,4.4015,4.4008,4.3991,4.3989,4.3947,4.394,4.3915,4.3884,4.3877,4.3872,4.3867,4.3804,4.3803,4.3803,4.383,4.3832,4.3833,0,0,0,0,0,4.4138,4.4127,4.4118,4.411,4.4059,4.4028,4.4021,4.3995,4.3991,4.3984,4.3958,4.3941,4.3878,4.3882,4.3873,4.3867,4.3804,4.3804,4.3803,4.3829,4.3831,4.3833,0,0,0,0,0,0,4.4164,4.4121,4.4111,4.4088,4.4062,4.4023,4.4013,4.3998,4.3972,4.397,4.3937,4.3928,4.3903,4.3882,4.3887,4.3847,4.3839,4.3837,4.3862,4.3863,4.3865,4.387,4.3865,0,0,0,0,0,4.4168,4.4148,4.4111,4.4094,4.4082,4.405,4.4035,4.4018,4.3989,4.3977,4.3949,4.3921,4.3895,4.3878,4.3851,4.3827,4.3817,4.3819,4.382,4.3822,4.382,4.3806,4.3807,4.3803,4.3803,4.3803,0,0,4.4174,4.4148,4.4137,4.4099,4.4077,4.4056,4.4041,4.4019,4.4002,4.3973,4.3946,4.3925,4.389,4.3864,4.3851,4.3846,4.3819,4.3821,4.3823,4.3821,4.3806,4.3806,4.3807,4.3803,4.3803,4.3803,0,0,4.4175,4.4154,4.4138,4.4117,4.4085,4.4064,4.406,4.4023,4.4008,4.3981,4.3959,4.3938,4.3893,4.387,4.3852,4.3846,4.383,4.3838,4.3846,4.3833,4.3833,4.3833,4.3831,4.3831,4.3837,4.3837,4.3837,0,4.4186,4.4156,4.413,4.4111,4.4094,4.4069,4.4052,4.4032,4.3993,4.3981,4.3976,4.3921,4.3896,4.3864,4.3863,4.3849,4.3843,4.3843,4.3835,4.3835,4.3835,4.3833,4.3832,4.3838,4.3838,4.3838,4.3838,0,4.4171,4.415,4.4141,4.4106,4.4088,4.407,4.404,4.4025,4.4009,4.3988,4.396,4.393,4.3897,4.3889,4.3872,4.3855,4.3853,4.3842,4.3833,4.3837,4.3834,4.3833,4.384,4.384,4.3839,4.3839,0,0,4.4186,4.4139,4.4136,4.412,4.4084,4.4066,4.4046,4.4017,4.4004,4.3978,4.396,4.3923,4.3914,4.3894,4.3874,4.3863,4.386,4.3853,4.3852,4.3856,4.384,4.3848,4.3848,4.3849,4.3849,4.3849,4.3843,0,4.4182,4.4148,4.4125,4.4099,4.4079,4.4056,4.4038,4.4013,4.3993,4.3972,4.3949,4.3924,4.3913,4.3901,4.3889,4.3863,4.3857,4.3863,4.3831,4.383,4.3841,4.3846,4.3855,4.3851,4.3842,4.3841,4.3841,0,4.4172,4.415,4.4122,4.4089,4.408,4.4065,4.4037,4.4017,4.3988,4.3974,4.3953,4.3934,4.3911,4.3904,4.3871,4.3877,4.3862,4.3847,4.3847,4.3842,4.3836,4.3842,4.3849,4.3848,4.3839,4.3839,4.384,0,4.4187,4.4148,4.4127,4.4115,4.4075,4.4066,4.4048,4.402,4.4004,4.3978,4.3967,4.3938,4.3922,4.39,4.3873,4.3871,4.3843,4.3834,4.383,4.3831,4.3825,4.3825,4.3829,4.3815,4.3815,4.3815,4.3815,0,4.4184,4.4169,4.4134,4.4121,4.4102,4.4076,4.4058,4.4038,4.4013,4.3995,4.3972,4.3955,4.392,4.3899,4.3877,4.3853,4.3846,4.3833,4.3828,4.3836,4.3837,4.3825,4.3825,4.3815,4.3815,4.3815,4.3815,0,4.4197,4.4173,4.4149,4.4114,4.4105,4.4093,4.4063,4.4049,4.4028,4.4006,4.3999,4.3966,4.3939,4.3911,4.3873,4.3859,4.3836,4.3828,4.3847,4.3844,4.3842,4.3842,4.3838,4.3836,4.3824,4.3824,4.3824,0,4.4197,4.4185,4.415,4.4138,4.4122,4.4101,4.4086,4.4059,4.4043,4.401,4.4,4.3973,4.3949,4.3908,4.3879,4.3851,4.3842,4.3843,4.3838,4.3846,4.3842,4.3844,4.3842,4.3844,4.3844,4.3844,4.3845,0,4.42,4.4189,4.4169,4.4145,4.4127,4.4106,4.4084,4.4074,4.4043,4.4026,4.4001,4.3983,4.3946,4.3919,4.3888,4.3868,4.3851,4.3847,4.3844,4.3852,4.3864,4.3858,4.3851,4.3847,4.3847,4.3846,4.3846,4.3846,4.4206,4.4195,4.4169,4.4147,4.4129,4.4109,4.4094,4.4073,4.4052,4.4022,4.4007,4.3981,4.3953,4.3909,4.389,4.3869,4.3863,4.386,4.3859,4.3858,4.3861,4.3868,4.3863,4.3863,4.3862,4.3862,4.3862,0,4.4209,4.4192,4.4172,4.4143,4.4126,4.4114,4.4089,4.4074,4.4053,4.4029,4.4007,4.3978,4.3951,4.3922,4.3893,4.3882,4.3873,4.3875,4.3876,4.3871,4.3867,4.3872,4.3883,4.3883,4.3883,4.3883,4.3883,4.3883,4.4208,4.4188,4.4175,4.4145,4.4127,4.4104,4.4091,4.4072,4.4053,4.4022,4.4001,4.3983,4.3956,4.3926,4.3901,4.3893,4.3883,4.3888,4.3877,4.3873,4.3872,4.387,4.3875,4.3886,4.3886,4.3884,4.3884,4.3884]}]]